Year,Month,Day,Hour,Minute,Value (Times are PST for temperature in C)
2020,04,12,00,00,5.00
2020,04,12,00,01,5.00
2020,04,12,00,02,5.00
2020,04,12,00,03,5.00
2020,04,12,00,04,5.00
2020,04,12,00,05,4.90
2020,04,12,00,06,4.90
2020,04,12,00,07,4.90
2020,04,12,00,08,4.80
2020,04,12,00,09,4.80
2020,04,12,00,10,4.80
2020,04,12,00,11,4.80
2020,04,12,00,12,4.70
2020,04,12,00,13,4.70
2020,04,12,00,14,4.70
2020,04,12,00,15,4.60
2020,04,12,00,16,4.60
2020,04,12,00,17,4.60
2020,04,12,00,18,4.50
2020,04,12,00,19,4.50
2020,04,12,00,20,4.50
2020,04,12,00,21,4.50
2020,04,12,00,22,4.50
2020,04,12,00,23,4.50
2020,04,12,00,24,4.50
2020,04,12,00,25,4.50
2020,04,12,00,26,4.40
2020,04,12,00,27,4.40
2020,04,12,00,28,4.40
2020,04,12,00,29,4.40
2020,04,12,00,30,4.40
2020,04,12,00,31,4.40
2020,04,12,00,32,4.40
2020,04,12,00,33,4.40
2020,04,12,00,34,4.30
2020,04,12,00,35,4.30
2020,04,12,00,36,4.30
2020,04,12,00,37,4.30
2020,04,12,00,38,4.30
2020,04,12,00,39,4.30
2020,04,12,00,40,4.20
2020,04,12,00,41,4.20
2020,04,12,00,42,4.20
2020,04,12,00,43,4.20
2020,04,12,00,44,4.20
2020,04,12,00,45,4.20
2020,04,12,00,46,4.10
2020,04,12,00,47,4.10
2020,04,12,00,48,4.10
2020,04,12,00,49,4.10
2020,04,12,00,50,4.10
2020,04,12,00,51,4.10
2020,04,12,00,52,4.00
2020,04,12,00,53,4.00
2020,04,12,00,54,3.90
2020,04,12,00,55,3.90
2020,04,12,00,56,3.90
2020,04,12,00,57,3.90
2020,04,12,00,58,3.90
2020,04,12,00,59,3.80
2020,04,12,01,00,3.80
2020,04,12,01,01,3.80
2020,04,12,01,02,3.80
2020,04,12,01,03,3.80
2020,04,12,01,04,3.80
2020,04,12,01,05,3.80
2020,04,12,01,06,3.70
2020,04,12,01,07,3.70
2020,04,12,01,08,3.70
2020,04,12,01,09,3.70
2020,04,12,01,10,3.70
2020,04,12,01,11,3.60
2020,04,12,01,12,3.60
2020,04,12,01,13,3.60
2020,04,12,01,14,3.50
2020,04,12,01,15,3.50
2020,04,12,01,16,3.40
2020,04,12,01,17,3.40
2020,04,12,01,18,3.40
2020,04,12,01,19,3.30
2020,04,12,01,20,3.30
2020,04,12,01,21,3.30
2020,04,12,01,22,3.30
2020,04,12,01,23,3.30
2020,04,12,01,24,3.30
2020,04,12,01,25,3.30
2020,04,12,01,26,3.30
2020,04,12,01,27,3.20
2020,04,12,01,28,3.20
2020,04,12,01,29,3.20
2020,04,12,01,30,3.20
2020,04,12,01,31,3.20
2020,04,12,01,32,3.20
2020,04,12,01,33,3.20
2020,04,12,01,34,3.10
2020,04,12,01,35,3.10
2020,04,12,01,36,3.10
2020,04,12,01,37,3.00
2020,04,12,01,38,3.00
2020,04,12,01,39,3.00
2020,04,12,01,40,2.90
2020,04,12,01,41,2.90
2020,04,12,01,42,2.90
2020,04,12,01,43,2.90
2020,04,12,01,44,2.90
2020,04,12,01,45,2.80
2020,04,12,01,46,2.80
2020,04,12,01,47,2.80
2020,04,12,01,48,2.80
2020,04,12,01,49,2.80
2020,04,12,01,50,2.80
2020,04,12,01,51,2.70
2020,04,12,01,52,2.70
2020,04,12,01,53,2.70
2020,04,12,01,54,2.70
2020,04,12,01,55,2.70
2020,04,12,01,56,2.60
2020,04,12,01,57,2.60
2020,04,12,01,58,2.60
2020,04,12,01,59,2.60
2020,04,12,02,00,2.60
2020,04,12,02,01,2.60
2020,04,12,02,02,2.60
2020,04,12,02,03,2.60
2020,04,12,02,04,2.50
2020,04,12,02,05,2.50
2020,04,12,02,06,2.50
2020,04,12,02,07,2.50
2020,04,12,02,08,2.50
2020,04,12,02,09,2.40
2020,04,12,02,10,2.40
2020,04,12,02,11,2.40
2020,04,12,02,12,2.40
2020,04,12,02,13,2.30
2020,04,12,02,14,2.30
2020,04,12,02,15,2.30
2020,04,12,02,16,2.30
2020,04,12,02,17,2.30
2020,04,12,02,18,2.20
2020,04,12,02,19,2.20
2020,04,12,02,20,2.20
2020,04,12,02,21,2.20
2020,04,12,02,22,2.20
2020,04,12,02,23,2.20
2020,04,12,02,24,2.10
2020,04,12,02,25,2.10
2020,04,12,02,26,2.10
2020,04,12,02,27,2.10
2020,04,12,02,28,2.00
2020,04,12,02,29,2.00
2020,04,12,02,30,2.00
2020,04,12,02,31,2.00
2020,04,12,02,32,2.00
2020,04,12,02,33,2.00
2020,04,12,02,34,2.00
2020,04,12,02,35,1.90
2020,04,12,02,36,1.90
2020,04,12,02,37,1.90
2020,04,12,02,38,1.90
2020,04,12,02,39,1.90
2020,04,12,02,40,1.90
2020,04,12,02,41,1.90
2020,04,12,02,42,1.90
2020,04,12,02,43,1.90
2020,04,12,02,44,1.80
2020,04,12,02,45,1.80
2020,04,12,02,46,1.80
2020,04,12,02,47,1.80
2020,04,12,02,48,1.80
2020,04,12,02,49,1.80
2020,04,12,02,50,1.80
2020,04,12,02,51,1.80
2020,04,12,02,52,1.70
2020,04,12,02,53,1.70
2020,04,12,02,54,1.70
2020,04,12,02,55,1.70
2020,04,12,02,56,1.70
2020,04,12,02,57,1.70
2020,04,12,02,58,1.70
2020,04,12,02,59,1.70
2020,04,12,03,00,1.60
2020,04,12,03,01,1.60
2020,04,12,03,02,1.60
2020,04,12,03,03,1.60
2020,04,12,03,04,1.60
2020,04,12,03,05,1.50
2020,04,12,03,06,1.50
2020,04,12,03,07,1.50
2020,04,12,03,08,1.50
2020,04,12,03,09,1.40
2020,04,12,03,10,1.40
2020,04,12,03,11,1.40
2020,04,12,03,12,1.40
2020,04,12,03,13,1.40
2020,04,12,03,14,1.40
2020,04,12,03,15,1.30
2020,04,12,03,16,1.30
2020,04,12,03,17,1.30
2020,04,12,03,18,1.30
2020,04,12,03,19,1.30
2020,04,12,03,20,1.20
2020,04,12,03,21,1.20
2020,04,12,03,22,1.20
2020,04,12,03,23,1.20
2020,04,12,03,24,1.20
2020,04,12,03,25,1.20
2020,04,12,03,26,1.10
2020,04,12,03,27,1.10
2020,04,12,03,28,1.10
2020,04,12,03,29,1.10
2020,04,12,03,30,1.10
2020,04,12,03,31,1.10
2020,04,12,03,32,1.10
2020,04,12,03,33,1.00
2020,04,12,03,34,1.00
2020,04,12,03,35,1.00
2020,04,12,03,36,1.00
2020,04,12,03,37,1.00
2020,04,12,03,38,1.00
2020,04,12,03,39,1.00
2020,04,12,03,40,0.90
2020,04,12,03,41,0.90
2020,04,12,03,42,0.90
2020,04,12,03,43,0.90
2020,04,12,03,44,0.90
2020,04,12,03,45,0.90
2020,04,12,03,46,0.80
2020,04,12,03,47,0.80
2020,04,12,03,48,0.80
2020,04,12,03,49,0.80
2020,04,12,03,50,0.80
2020,04,12,03,51,0.80
2020,04,12,03,52,0.80
2020,04,12,03,53,0.80
2020,04,12,03,54,0.80
2020,04,12,03,55,0.80
2020,04,12,03,56,0.80
2020,04,12,03,57,0.80
2020,04,12,03,58,0.80
2020,04,12,03,59,0.70
2020,04,12,04,00,0.70
2020,04,12,04,01,0.70
2020,04,12,04,02,0.70
2020,04,12,04,03,0.70
2020,04,12,04,04,0.60
2020,04,12,04,05,0.60
2020,04,12,04,06,0.60
2020,04,12,04,07,0.60
2020,04,12,04,08,0.60
2020,04,12,04,09,0.60
2020,04,12,04,10,0.60
2020,04,12,04,11,0.60
2020,04,12,04,12,0.60
2020,04,12,04,13,0.50
2020,04,12,04,14,0.50
2020,04,12,04,15,0.50
2020,04,12,04,16,0.40
2020,04,12,04,17,0.40
2020,04,12,04,18,0.40
2020,04,12,04,19,0.40
2020,04,12,04,20,0.40
2020,04,12,04,21,0.40
2020,04,12,04,22,0.40
2020,04,12,04,23,0.30
2020,04,12,04,24,0.30
2020,04,12,04,25,0.30
2020,04,12,04,26,0.30
2020,04,12,04,27,0.30
2020,04,12,04,28,0.30
2020,04,12,04,29,0.30
2020,04,12,04,30,0.30
2020,04,12,04,31,0.30
2020,04,12,04,32,0.30
2020,04,12,04,33,0.30
2020,04,12,04,34,0.30
2020,04,12,04,35,0.30
2020,04,12,04,36,0.20
2020,04,12,04,37,0.20
2020,04,12,04,38,0.20
2020,04,12,04,39,0.20
2020,04,12,04,40,0.20
2020,04,12,04,41,0.20
2020,04,12,04,42,0.20
2020,04,12,04,43,0.20
2020,04,12,04,44,0.10
2020,04,12,04,45,0.10
2020,04,12,04,46,0.10
2020,04,12,04,47,0.10
2020,04,12,04,48,0.10
2020,04,12,04,49,0.10
2020,04,12,04,50,0.10
2020,04,12,04,51,0.10
2020,04,12,04,52,0.00
2020,04,12,04,53,0.00
2020,04,12,04,54,0.00
2020,04,12,04,55,0.00
2020,04,12,04,56,-0.10
2020,04,12,04,57,-0.10
2020,04,12,04,58,-0.10
2020,04,12,04,59,-0.10
2020,04,12,05,00,-0.10
2020,04,12,05,01,-0.20
2020,04,12,05,02,-0.20
2020,04,12,05,03,-0.20
2020,04,12,05,04,-0.20
2020,04,12,05,05,-0.20
2020,04,12,05,06,-0.20
2020,04,12,05,07,-0.20
2020,04,12,05,08,-0.20
2020,04,12,05,09,-0.20
2020,04,12,05,10,-0.20
2020,04,12,05,11,-0.20
2020,04,12,05,12,-0.20
2020,04,12,05,13,-0.20
2020,04,12,05,14,-0.20
2020,04,12,05,15,-0.20
2020,04,12,05,16,-0.20
2020,04,12,05,17,-0.20
2020,04,12,05,18,-0.20
2020,04,12,05,19,-0.20
2020,04,12,05,20,-0.20
2020,04,12,05,21,-0.30
2020,04,12,05,22,-0.30
2020,04,12,05,23,-0.30
2020,04,12,05,24,-0.30
2020,04,12,05,25,-0.30
2020,04,12,05,26,-0.30
2020,04,12,05,27,-0.30
2020,04,12,05,28,-0.30
2020,04,12,05,29,-0.30
2020,04,12,05,30,-0.30
2020,04,12,05,31,-0.30
2020,04,12,05,32,-0.30
2020,04,12,05,33,-0.30
2020,04,12,05,34,-0.30
2020,04,12,05,35,-0.30
2020,04,12,05,36,-0.30
2020,04,12,05,37,-0.30
2020,04,12,05,38,-0.30
2020,04,12,05,39,-0.40
2020,04,12,05,40,-0.40
2020,04,12,05,41,-0.40
2020,04,12,05,42,-0.40
2020,04,12,05,43,-0.40
2020,04,12,05,44,-0.40
2020,04,12,05,45,-0.40
2020,04,12,05,46,-0.40
2020,04,12,05,47,-0.40
2020,04,12,05,48,-0.40
2020,04,12,05,49,-0.40
2020,04,12,05,50,-0.40
2020,04,12,05,51,-0.40
2020,04,12,05,52,-0.40
2020,04,12,05,53,-0.50
2020,04,12,05,54,-0.50
2020,04,12,05,55,-0.50
2020,04,12,05,56,-0.60
2020,04,12,05,57,-0.60
2020,04,12,05,58,-0.60
2020,04,12,05,59,-0.60
2020,04,12,06,00,-0.60
2020,04,12,06,01,-0.60
2020,04,12,06,02,-0.60
2020,04,12,06,03,-0.60
2020,04,12,06,04,-0.60
2020,04,12,06,05,-0.60
2020,04,12,06,06,-0.60
2020,04,12,06,07,-0.60
2020,04,12,06,08,-0.60
2020,04,12,06,09,-0.60
2020,04,12,06,10,-0.60
2020,04,12,06,11,-0.60
2020,04,12,06,12,-0.60
2020,04,12,06,13,-0.60
2020,04,12,06,14,-0.60
2020,04,12,06,15,-0.60
2020,04,12,06,16,-0.60
2020,04,12,06,17,-0.70
2020,04,12,06,18,-0.70
2020,04,12,06,19,-0.70
2020,04,12,06,20,-0.70
2020,04,12,06,21,-0.70
2020,04,12,06,22,-0.70
2020,04,12,06,23,-0.70
2020,04,12,06,24,-0.70
2020,04,12,06,25,-0.80
2020,04,12,06,26,-0.80
2020,04,12,06,27,-0.80
2020,04,12,06,28,-0.80
2020,04,12,06,29,-0.80
2020,04,12,06,30,-0.80
2020,04,12,06,31,-0.80
2020,04,12,06,32,-0.80
2020,04,12,06,33,-0.80
2020,04,12,06,34,-0.80
2020,04,12,06,35,-0.80
2020,04,12,06,36,-0.80
2020,04,12,06,37,-0.80
2020,04,12,06,38,-0.80
2020,04,12,06,39,-0.80
2020,04,12,06,40,-0.80
2020,04,12,06,41,-0.80
2020,04,12,06,42,-0.80
2020,04,12,06,43,-0.80
2020,04,12,06,44,-0.80
2020,04,12,06,45,-0.80
2020,04,12,06,46,-0.80
2020,04,12,06,47,-0.80
2020,04,12,06,48,-0.80
2020,04,12,06,49,-0.80
2020,04,12,06,50,-0.80
2020,04,12,06,51,-0.80
2020,04,12,06,52,-0.90
2020,04,12,06,53,-0.90
2020,04,12,06,54,-0.90
2020,04,12,06,55,-0.90
2020,04,12,06,56,-0.90
2020,04,12,06,57,-0.90
2020,04,12,06,58,-0.90
2020,04,12,06,59,-0.90
2020,04,12,07,00,-0.90
2020,04,12,07,01,-0.90
2020,04,12,07,02,-0.90
2020,04,12,07,03,-0.90
2020,04,12,07,04,-0.90
2020,04,12,07,05,-0.90
2020,04,12,07,06,-0.90
2020,04,12,07,07,-0.90
2020,04,12,07,08,-0.90
2020,04,12,07,09,-0.90
2020,04,12,07,10,-0.80
2020,04,12,07,11,-0.80
2020,04,12,07,12,-0.80
2020,04,12,07,13,-0.80
2020,04,12,07,14,-0.80
2020,04,12,07,15,-0.80
2020,04,12,07,16,-0.80
2020,04,12,07,17,-0.80
2020,04,12,07,18,-0.80
2020,04,12,07,19,-0.70
2020,04,12,07,20,-0.70
2020,04,12,07,21,-0.70
2020,04,12,07,22,-0.70
2020,04,12,07,23,-0.70
2020,04,12,07,24,-0.60
2020,04,12,07,25,-0.60
2020,04,12,07,26,-0.60
2020,04,12,07,27,-0.60
2020,04,12,07,28,-0.60
2020,04,12,07,29,-0.50
2020,04,12,07,30,-0.50
2020,04,12,07,31,-0.40
2020,04,12,07,32,-0.40
2020,04,12,07,33,-0.40
2020,04,12,07,34,-0.40
2020,04,12,07,35,-0.30
2020,04,12,07,36,-0.20
2020,04,12,07,37,-0.10
2020,04,12,07,38,-0.10
2020,04,12,07,39,0.00
2020,04,12,07,40,0.10
2020,04,12,07,41,0.10
2020,04,12,07,42,0.20
2020,04,12,07,43,0.30
2020,04,12,07,44,0.50
2020,04,12,07,45,0.50
2020,04,12,07,46,0.60
2020,04,12,07,47,0.70
2020,04,12,07,48,0.80
2020,04,12,07,49,0.80
2020,04,12,07,50,0.80
2020,04,12,07,51,0.90
2020,04,12,07,52,0.90
2020,04,12,07,53,1.00
2020,04,12,07,54,1.00
2020,04,12,07,55,1.10
2020,04,12,07,56,1.10
2020,04,12,07,57,1.20
2020,04,12,07,58,1.30
2020,04,12,07,59,1.30
2020,04,12,08,00,1.40
2020,04,12,08,01,1.50
2020,04,12,08,02,1.50
2020,04,12,08,03,1.60
2020,04,12,08,04,1.60
2020,04,12,08,05,1.70
2020,04,12,08,06,1.80
2020,04,12,08,07,1.80
2020,04,12,08,08,1.90
2020,04,12,08,09,2.00
2020,04,12,08,10,2.10
2020,04,12,08,11,2.10
2020,04,12,08,12,2.10
2020,04,12,08,13,2.10
2020,04,12,08,14,2.40
2020,04,12,08,15,2.50
2020,04,12,08,16,2.50
2020,04,12,08,17,2.50
2020,04,12,08,18,2.60
2020,04,12,08,19,2.60
2020,04,12,08,20,2.70
2020,04,12,08,21,2.70
2020,04,12,08,22,2.80
2020,04,12,08,23,2.80
2020,04,12,08,24,2.90
2020,04,12,08,25,3.00
2020,04,12,08,26,3.10
2020,04,12,08,27,3.20
2020,04,12,08,28,3.30
2020,04,12,08,29,3.30
2020,04,12,08,30,3.40
2020,04,12,08,31,3.50
2020,04,12,08,32,3.50
2020,04,12,08,33,3.60
2020,04,12,08,34,3.70
2020,04,12,08,35,3.70
2020,04,12,08,36,3.80
2020,04,12,08,37,3.80
2020,04,12,08,38,3.80
2020,04,12,08,39,3.80
2020,04,12,08,40,3.80
2020,04,12,08,41,3.80
2020,04,12,08,42,3.80
2020,04,12,08,43,3.80
2020,04,12,08,44,3.90
2020,04,12,08,45,3.90
2020,04,12,08,46,4.00
2020,04,12,08,47,4.00
2020,04,12,08,48,4.10
2020,04,12,08,49,4.10
2020,04,12,08,50,4.20
2020,04,12,08,51,4.40
2020,04,12,08,52,4.50
2020,04,12,08,53,4.60
2020,04,12,08,54,4.70
2020,04,12,08,55,4.90
2020,04,12,08,56,5.00
2020,04,12,08,57,5.10
2020,04,12,08,58,5.10
2020,04,12,08,59,5.20
2020,04,12,09,00,5.20
2020,04,12,09,01,5.20
2020,04,12,09,02,5.30
2020,04,12,09,03,5.30
2020,04,12,09,04,5.30
2020,04,12,09,05,5.40
2020,04,12,09,06,5.40
2020,04,12,09,07,5.40
2020,04,12,09,08,5.50
2020,04,12,09,09,5.60
2020,04,12,09,10,5.70
2020,04,12,09,11,5.80
2020,04,12,09,12,5.80
2020,04,12,09,13,5.90
2020,04,12,09,14,5.90
2020,04,12,09,15,6.00
2020,04,12,09,16,6.10
2020,04,12,09,17,6.10
2020,04,12,09,18,6.20
2020,04,12,09,19,6.20
2020,04,12,09,20,6.20
2020,04,12,09,21,6.20
2020,04,12,09,22,6.20
2020,04,12,09,23,6.20
2020,04,12,09,24,6.20
2020,04,12,09,25,6.10
2020,04,12,09,26,6.20
2020,04,12,09,27,6.20
2020,04,12,09,28,6.20
2020,04,12,09,29,6.30
2020,04,12,09,30,6.30
2020,04,12,09,31,6.30
2020,04,12,09,32,6.40
2020,04,12,09,33,6.40
2020,04,12,09,34,6.50
2020,04,12,09,35,6.60
2020,04,12,09,36,6.70
2020,04,12,09,37,6.80
2020,04,12,09,38,6.90
2020,04,12,09,39,7.00
2020,04,12,09,40,7.10
2020,04,12,09,41,7.20
2020,04,12,09,42,7.30
2020,04,12,09,43,7.40
2020,04,12,09,44,7.50
2020,04,12,09,45,7.60
2020,04,12,09,46,7.60
2020,04,12,09,47,7.70
2020,04,12,09,48,7.80
2020,04,12,09,49,7.90
2020,04,12,09,50,8.00
2020,04,12,09,51,8.00
2020,04,12,09,52,8.10
2020,04,12,09,53,8.20
2020,04,12,09,54,8.30
2020,04,12,09,55,8.30
2020,04,12,09,56,8.40
2020,04,12,09,57,8.40
2020,04,12,09,58,8.50
2020,04,12,09,59,8.60
2020,04,12,10,00,8.70
2020,04,12,10,01,8.80
2020,04,12,10,02,8.90
2020,04,12,10,03,8.90
2020,04,12,10,04,9.00
2020,04,12,10,05,9.00
2020,04,12,10,06,9.00
2020,04,12,10,07,9.00
2020,04,12,10,08,9.10
2020,04,12,10,09,9.10
2020,04,12,10,10,9.10
2020,04,12,10,11,9.10
2020,04,12,10,12,9.20
2020,04,12,10,13,9.20
2020,04,12,10,14,9.20
2020,04,12,10,15,9.30
2020,04,12,10,16,9.40
2020,04,12,10,17,9.40
2020,04,12,10,18,9.50
2020,04,12,10,19,9.50
2020,04,12,10,20,9.40
2020,04,12,10,21,9.30
2020,04,12,10,22,9.30
2020,04,12,10,23,9.20
2020,04,12,10,24,9.20
2020,04,12,10,25,9.10
2020,04,12,10,26,9.20
2020,04,12,10,27,9.20
2020,04,12,10,28,9.20
2020,04,12,10,29,9.30
2020,04,12,10,30,9.30
2020,04,12,10,31,9.30
2020,04,12,10,32,9.40
2020,04,12,10,33,9.50
2020,04,12,10,34,9.60
2020,04,12,10,35,9.70
2020,04,12,10,36,9.90
2020,04,12,10,37,10.00
2020,04,12,10,38,10.10
2020,04,12,10,39,10.20
2020,04,12,10,40,10.20
2020,04,12,10,41,10.30
2020,04,12,10,42,10.40
2020,04,12,10,43,10.60
2020,04,12,10,44,10.80
2020,04,12,10,45,10.90
2020,04,12,10,46,11.00
2020,04,12,10,47,11.10
2020,04,12,10,48,11.20
2020,04,12,10,49,11.20
2020,04,12,10,50,11.20
2020,04,12,10,51,11.20
2020,04,12,10,52,11.20
2020,04,12,10,53,11.30
2020,04,12,10,54,11.30
2020,04,12,10,55,11.30
2020,04,12,10,56,11.20
2020,04,12,10,57,11.30
2020,04,12,10,58,11.30
2020,04,12,10,59,11.40
2020,04,12,11,00,11.50
2020,04,12,11,01,11.50
2020,04,12,11,02,11.60
2020,04,12,11,03,11.60
2020,04,12,11,04,11.70
2020,04,12,11,05,11.70
2020,04,12,11,06,11.80
2020,04,12,11,07,11.90
2020,04,12,11,08,11.90
2020,04,12,11,09,11.90
2020,04,12,11,10,11.90
2020,04,12,11,11,11.90
2020,04,12,11,12,12.00
2020,04,12,11,13,12.00
2020,04,12,11,14,12.10
2020,04,12,11,15,12.10
2020,04,12,11,16,12.10
2020,04,12,11,17,12.10
2020,04,12,11,18,12.20
2020,04,12,11,19,12.20
2020,04,12,11,20,12.20
2020,04,12,11,21,12.30
2020,04,12,11,22,12.40
2020,04,12,11,23,12.40
2020,04,12,11,24,12.50
2020,04,12,11,25,12.50
2020,04,12,11,26,12.60
2020,04,12,11,27,12.60
2020,04,12,11,28,12.70
2020,04,12,11,29,12.70
2020,04,12,11,30,12.70
2020,04,12,11,31,12.80
2020,04,12,11,32,12.90
2020,04,12,11,33,13.00
2020,04,12,11,34,13.00
2020,04,12,11,35,13.10
2020,04,12,11,36,13.20
2020,04,12,11,37,13.20
2020,04,12,11,38,13.30
2020,04,12,11,39,13.40
2020,04,12,11,40,13.50
2020,04,12,11,41,13.60
2020,04,12,11,42,13.70
2020,04,12,11,43,13.80
2020,04,12,11,44,13.90
2020,04,12,11,45,14.00
2020,04,12,11,46,14.00
2020,04,12,11,47,14.20
2020,04,12,11,48,14.30
2020,04,12,11,49,14.30
2020,04,12,11,50,14.30
2020,04,12,11,51,14.30
2020,04,12,11,52,14.30
2020,04,12,11,53,14.30
2020,04,12,11,54,14.20
2020,04,12,11,55,14.20
2020,04,12,11,56,14.20
2020,04,12,11,57,14.20
2020,04,12,11,58,14.20
2020,04,12,11,59,14.20
2020,04,12,12,00,14.20
2020,04,12,12,01,14.20
2020,04,12,12,02,14.20
2020,04,12,12,03,14.10
2020,04,12,12,04,14.10
2020,04,12,12,05,14.10
2020,04,12,12,06,14.10
2020,04,12,12,07,14.10
2020,04,12,12,08,14.10
2020,04,12,12,09,14.00
2020,04,12,12,10,14.10
2020,04,12,12,11,14.10
2020,04,12,12,12,14.20
2020,04,12,12,13,14.30
2020,04,12,12,14,14.30
2020,04,12,12,15,14.30
2020,04,12,12,16,14.40
2020,04,12,12,17,14.40
2020,04,12,12,18,14.40
2020,04,12,12,19,14.50
2020,04,12,12,20,14.40
2020,04,12,12,21,14.40
2020,04,12,12,22,14.40
2020,04,12,12,23,14.40
2020,04,12,12,24,14.40
2020,04,12,12,25,14.40
2020,04,12,12,26,14.40
2020,04,12,12,27,14.40
2020,04,12,12,28,14.40
2020,04,12,12,29,14.50
2020,04,12,12,30,14.60
2020,04,12,12,31,14.60
2020,04,12,12,32,14.70
2020,04,12,12,33,14.70
2020,04,12,12,34,14.70
2020,04,12,12,35,14.70
2020,04,12,12,36,14.80
2020,04,12,12,37,14.80
2020,04,12,12,38,14.80
2020,04,12,12,39,14.80
2020,04,12,12,40,14.80
2020,04,12,12,41,14.70
2020,04,12,12,42,14.70
2020,04,12,12,43,14.60
2020,04,12,12,44,14.60
2020,04,12,12,45,14.70
2020,04,12,12,46,14.70
2020,04,12,12,47,14.70
2020,04,12,12,48,14.80
2020,04,12,12,49,14.90
2020,04,12,12,50,14.80
2020,04,12,12,51,14.80
2020,04,12,12,52,14.70
2020,04,12,12,53,14.70
2020,04,12,12,54,14.80
2020,04,12,12,55,14.80
2020,04,12,12,56,14.80
2020,04,12,12,57,14.80
2020,04,12,12,58,14.80
2020,04,12,12,59,14.80
2020,04,12,13,00,14.90
2020,04,12,13,01,15.00
2020,04,12,13,02,15.10
2020,04,12,13,03,15.20
2020,04,12,13,04,15.20
2020,04,12,13,05,15.30
2020,04,12,13,06,15.30
2020,04,12,13,07,15.30
2020,04,12,13,08,15.30
2020,04,12,13,09,15.30
2020,04,12,13,10,15.30
2020,04,12,13,11,15.30
2020,04,12,13,12,15.40
2020,04,12,13,13,15.40
2020,04,12,13,14,15.30
2020,04,12,13,15,15.20
2020,04,12,13,16,15.20
2020,04,12,13,17,15.20
2020,04,12,13,18,15.30
2020,04,12,13,19,15.30
2020,04,12,13,20,15.30
2020,04,12,13,21,15.20
2020,04,12,13,22,15.20
2020,04,12,13,23,15.20
2020,04,12,13,24,15.30
2020,04,12,13,25,15.40
2020,04,12,13,26,15.40
2020,04,12,13,27,15.40
2020,04,12,13,28,15.50
2020,04,12,13,29,15.60
2020,04,12,13,30,15.60
2020,04,12,13,31,15.60
2020,04,12,13,32,15.50
2020,04,12,13,33,15.40
2020,04,12,13,34,15.40
2020,04,12,13,35,15.30
2020,04,12,13,36,15.40
2020,04,12,13,37,15.40
2020,04,12,13,38,15.50
2020,04,12,13,39,15.50
2020,04,12,13,40,15.50
2020,04,12,13,41,15.60
2020,04,12,13,42,15.50
2020,04,12,13,43,15.50
2020,04,12,13,44,15.50
2020,04,12,13,45,15.50
2020,04,12,13,46,15.50
2020,04,12,13,47,15.50
2020,04,12,13,48,15.60
2020,04,12,13,49,15.70
2020,04,12,13,50,15.70
2020,04,12,13,51,15.60
2020,04,12,13,52,15.70
2020,04,12,13,53,15.70
2020,04,12,13,54,15.70
2020,04,12,13,55,15.60
2020,04,12,13,56,15.60
2020,04,12,13,57,15.60
2020,04,12,13,58,15.50
2020,04,12,13,59,15.50
2020,04,12,14,00,15.40
2020,04,12,14,01,15.40
2020,04,12,14,02,15.40
2020,04,12,14,03,15.50
2020,04,12,14,04,15.50
2020,04,12,14,05,15.60
2020,04,12,14,06,15.70
2020,04,12,14,07,15.70
2020,04,12,14,08,15.70
2020,04,12,14,09,15.70
2020,04,12,14,10,15.70
2020,04,12,14,11,15.70
2020,04,12,14,12,15.80
2020,04,12,14,13,15.80
2020,04,12,14,14,15.80
2020,04,12,14,15,15.70
2020,04,12,14,16,15.60
2020,04,12,14,17,15.50
2020,04,12,14,18,15.50
2020,04,12,14,19,15.60
2020,04,12,14,20,15.60
2020,04,12,14,21,15.60
2020,04,12,14,22,15.60
2020,04,12,14,23,15.60
2020,04,12,14,24,15.70
2020,04,12,14,25,15.70
2020,04,12,14,26,15.80
2020,04,12,14,27,15.80
2020,04,12,14,28,15.70
2020,04,12,14,29,15.70
2020,04,12,14,30,15.70
2020,04,12,14,31,15.70
2020,04,12,14,32,15.70
2020,04,12,14,33,15.70
2020,04,12,14,34,15.70
2020,04,12,14,35,15.70
2020,04,12,14,36,15.70
2020,04,12,14,37,15.70
2020,04,12,14,38,15.70
2020,04,12,14,39,15.70
2020,04,12,14,40,15.70
2020,04,12,14,41,15.70
2020,04,12,14,42,15.70
2020,04,12,14,43,15.70
2020,04,12,14,44,15.70
2020,04,12,14,45,15.70
2020,04,12,14,46,15.70
2020,04,12,14,47,15.70
2020,04,12,14,48,15.70
2020,04,12,14,49,15.80
2020,04,12,14,50,15.80
2020,04,12,14,51,15.80
2020,04,12,14,52,15.80
2020,04,12,14,53,15.80
2020,04,12,14,54,15.70
2020,04,12,14,55,15.70
2020,04,12,14,56,15.70
2020,04,12,14,57,15.70
2020,04,12,14,58,15.70
2020,04,12,14,59,15.60
2020,04,12,15,00,15.60
2020,04,12,15,01,15.60
2020,04,12,15,02,15.60
2020,04,12,15,03,15.60
2020,04,12,15,04,15.60
2020,04,12,15,05,15.60
2020,04,12,15,06,15.60
2020,04,12,15,07,15.70
2020,04,12,15,08,15.70
2020,04,12,15,09,15.70
2020,04,12,15,10,15.80
2020,04,12,15,11,15.80
2020,04,12,15,12,15.90
2020,04,12,15,13,15.90
2020,04,12,15,14,15.90
2020,04,12,15,15,15.80
2020,04,12,15,16,15.80
2020,04,12,15,17,15.80
2020,04,12,15,18,15.90
2020,04,12,15,19,15.90
2020,04,12,15,20,16.00
2020,04,12,15,21,16.10
2020,04,12,15,22,16.10
2020,04,12,15,23,16.10
2020,04,12,15,24,16.00
2020,04,12,15,25,16.00
2020,04,12,15,26,16.00
2020,04,12,15,27,16.00
2020,04,12,15,28,16.00
2020,04,12,15,29,15.90
2020,04,12,15,30,15.80
2020,04,12,15,31,15.80
2020,04,12,15,32,15.80
2020,04,12,15,33,15.80
2020,04,12,15,34,15.80
2020,04,12,15,35,15.90
2020,04,12,15,36,15.90
2020,04,12,15,37,16.00
2020,04,12,15,38,16.00
2020,04,12,15,39,16.00
2020,04,12,15,40,16.00
2020,04,12,15,41,16.00
2020,04,12,15,42,15.90
2020,04,12,15,43,16.00
2020,04,12,15,44,16.00
2020,04,12,15,45,16.00
2020,04,12,15,46,16.00
2020,04,12,15,47,16.00
2020,04,12,15,48,16.00
2020,04,12,15,49,16.00
2020,04,12,15,50,16.00
2020,04,12,15,51,16.00
2020,04,12,15,52,16.00
2020,04,12,15,53,16.00
2020,04,12,15,54,16.10
2020,04,12,15,55,16.20
2020,04,12,15,56,16.20
2020,04,12,15,57,16.30
2020,04,12,15,58,16.40
2020,04,12,15,59,16.40
2020,04,12,16,00,16.40
2020,04,12,16,01,16.30
2020,04,12,16,02,16.30
2020,04,12,16,03,16.30
2020,04,12,16,04,16.30
2020,04,12,16,05,16.40
2020,04,12,16,06,16.40
2020,04,12,16,07,16.40
2020,04,12,16,08,16.30
2020,04,12,16,09,16.30
2020,04,12,16,10,16.20
2020,04,12,16,11,16.20
2020,04,12,16,12,16.20
2020,04,12,16,13,16.20
2020,04,12,16,14,16.30
2020,04,12,16,15,16.20
2020,04,12,16,16,16.30
2020,04,12,16,17,16.30
2020,04,12,16,18,16.40
2020,04,12,16,19,16.50
2020,04,12,16,20,16.50
2020,04,12,16,21,16.50
2020,04,12,16,22,16.50
2020,04,12,16,23,16.60
2020,04,12,16,24,16.60
2020,04,12,16,25,16.60
2020,04,12,16,26,16.60
2020,04,12,16,27,16.50
2020,04,12,16,28,16.50
2020,04,12,16,29,16.30
2020,04,12,16,30,16.20
2020,04,12,16,31,16.20
2020,04,12,16,32,16.20
2020,04,12,16,33,16.20
2020,04,12,16,34,16.30
2020,04,12,16,35,16.30
2020,04,12,16,36,16.30
2020,04,12,16,37,16.30
2020,04,12,16,38,16.30
2020,04,12,16,39,16.20
2020,04,12,16,40,16.20
2020,04,12,16,41,16.30
2020,04,12,16,42,16.30
2020,04,12,16,43,16.30
2020,04,12,16,44,16.30
2020,04,12,16,45,16.30
2020,04,12,16,46,16.30
2020,04,12,16,47,16.30
2020,04,12,16,48,16.40
2020,04,12,16,49,16.40
2020,04,12,16,50,16.40
2020,04,12,16,51,16.40
2020,04,12,16,52,16.40
2020,04,12,16,53,16.40
2020,04,12,16,54,16.40
2020,04,12,16,55,16.40
2020,04,12,16,56,16.40
2020,04,12,16,57,16.50
2020,04,12,16,58,16.50
2020,04,12,16,59,16.50
2020,04,12,17,00,16.40
2020,04,12,17,01,16.30
2020,04,12,17,02,16.30
2020,04,12,17,03,16.30
2020,04,12,17,04,16.30
2020,04,12,17,05,16.30
2020,04,12,17,06,16.30
2020,04,12,17,07,16.30
2020,04,12,17,08,16.30
2020,04,12,17,09,16.30
2020,04,12,17,10,16.30
2020,04,12,17,11,16.40
2020,04,12,17,12,16.50
2020,04,12,17,13,16.50
2020,04,12,17,14,16.60
2020,04,12,17,15,16.60
2020,04,12,17,16,16.60
2020,04,12,17,17,16.60
2020,04,12,17,18,16.60
2020,04,12,17,19,16.50
2020,04,12,17,20,16.50
2020,04,12,17,21,16.40
2020,04,12,17,22,16.40
2020,04,12,17,23,16.30
2020,04,12,17,24,16.40
2020,04,12,17,25,16.40
2020,04,12,17,26,16.50
2020,04,12,17,27,16.50
2020,04,12,17,28,16.60
2020,04,12,17,29,16.60
2020,04,12,17,30,16.60
2020,04,12,17,31,16.60
2020,04,12,17,32,16.60
2020,04,12,17,33,16.60
2020,04,12,17,34,16.50
2020,04,12,17,35,16.50
2020,04,12,17,36,16.40
2020,04,12,17,37,16.40
2020,04,12,17,38,16.40
2020,04,12,17,39,16.40
2020,04,12,17,40,16.40